Total_Precipitation_Accumulation
0.05 0.10 0.25 0.45 1.05 1.38 1.18 0.73 0.54 0.50 0.57 0.57 0.50 0.48 0.54 0.60 0.79 1.34 0.96 0.51 0.26 0.18 0.24 0.39 0.58 0.52 0.49 0.48 0.50 0.54 0.53 0.52 0.50 0.50 0.48 0.51 0.54 0.53 0.53 0.61 0.72 0.77 0.78 0.82 0.83 0.75 0.72 0.72 0.73
0.09 0.16 0.34 0.87 1.33 1.27 1.12 0.63 0.36 0.45 0.54 0.67 0.66 0.53 0.44 0.45 0.43 0.44 0.47 0.56 0.24 0.16 0.19 0.24 0.42 0.45 0.43 0.45 0.46 0.47 0.46 0.45 0.46 0.46 0.47 0.52 0.57 0.61 0.61 0.71 0.80 0.84 0.85 0.86 0.78 0.72 0.70 0.67 0.76
0.11 0.23 0.42 0.87 0.94 0.84 0.84 0.51 0.37 0.33 0.50 0.73 0.71 0.48 0.47 0.50 0.41 0.35 0.37 0.42 0.27 0.22 0.18 0.22 0.38 0.39 0.39 0.39 0.40 0.42 0.45 0.41 0.41 0.45 0.48 0.54 0.63 0.73 0.78 0.83 0.89 0.93 0.93 0.86 0.77 0.70 0.67 0.66 0.70
0.13 0.29 0.51 0.58 0.41 0.32 0.40 0.44 0.46 0.45 0.63 0.76 0.62 0.52 0.53 0.52 0.44 0.34 0.31 0.40 0.27 0.26 0.21 0.25 0.37 0.35 0.34 0.34 0.34 0.37 0.42 0.42 0.43 0.46 0.48 0.57 0.64 0.74 0.82 0.83 0.84 0.91 0.89 0.78 0.72 0.73 0.68 0.69 0.76
0.12 0.28 0.55 0.44 0.26 0.20 0.22 0.28 0.36 0.52 0.70 0.82 0.69 0.66 0.72 0.56 0.44 0.36 0.30 0.42 0.40 0.33 0.31 0.33 0.41 0.41 0.38 0.37 0.38 0.39 0.41 0.41 0.41 0.43 0.46 0.58 0.64 0.67 0.72 0.75 0.76 0.74 0.74 0.74 0.75 0.80 0.79 0.82 0.85
0.12 0.23 0.41 0.29 0.18 0.15 0.20 0.25 0.39 0.58 0.61 0.69 0.79 0.86 0.86 0.64 0.54 0.46 0.43 0.53 0.56 0.48 0.37 0.45 0.50 0.53 0.50 0.45 0.46 0.47 0.47 0.43 0.42 0.46 0.49 0.57 0.63 0.64 0.66 0.70 0.69 0.63 0.60 0.65 0.73 0.83 0.87 0.86 0.85
0.15 0.19 0.22 0.18 0.12 0.14 0.22 0.32 0.36 0.49 0.57 0.77 0.82 0.85 0.92 0.84 0.70 0.57 0.68 0.90 0.88 0.72 0.55 0.57 0.56 0.53 0.54 0.57 0.57 0.55 0.53 0.51 0.50 0.52 0.55 0.57 0.61 0.59 0.62 0.77 0.73 0.63 0.61 0.66 0.76 0.80 0.93 0.86 0.83
0.08 0.14 0.17 0.15 0.09 0.13 0.19 0.26 0.37 0.50 0.62 0.69 0.79 0.91 0.93 0.82 0.73 0.78 0.99 1.35 1.48 1.32 1.00 0.71 0.65 0.70 0.65 0.61 0.65 0.66 0.55 0.53 0.56 0.59 0.63 0.68 0.71 0.71 0.73 0.78 0.85 0.74 0.74 0.77 0.88 0.86 0.85 0.88 0.92
0.04 0.11 0.15 0.12 0.10 0.13 0.20 0.25 0.32 0.38 0.48 0.70 0.88 1.02 0.92 0.73 0.75 0.96 1.18 1.49 1.67 1.48 1.29 1.11 0.99 0.88 0.85 0.79 0.66 0.80 0.70 0.67 0.74 0.87 0.89 1.07 1.23 1.09 1.06 0.93 1.05 1.00 1.02 1.14 1.27 1.21 1.15 1.13 1.14
0.02 0.06 0.07 0.05 0.05 0.06 0.12 0.22 0.29 0.43 0.74 1.17 1.40 1.26 1.01 0.86 0.96 1.21 1.39 1.40 1.47 1.49 1.42 1.47 1.29 1.17 1.18 1.08 1.17 1.41 1.27 1.22 1.33 1.47 1.47 1.77 1.91 1.69 1.20 1.22 1.49 1.48 1.57 1.70 1.85 1.98 1.74 1.51 1.32
0.01 0.03 0.03 0.02 0.02 0.03 0.06 0.15 0.27 0.45 0.96 1.45 1.65 1.35 1.13 1.08 1.19 1.33 1.64 1.73 1.81 1.78 1.62 1.69 1.60 1.50 1.56 1.67 1.63 1.73 1.84 1.90 2.01 2.02 2.08 2.28 2.06 1.68 1.47 1.64 1.93 1.96 1.97 2.00 2.22 2.38 1.99 1.96 2.02
0.00 0.00 0.00 0.01 0.01 0.02 0.05 0.14 0.34 0.59 0.99 1.28 1.21 1.07 1.06 1.25 1.44 1.62 1.88 2.18 2.28 2.32 2.19 1.97 1.91 2.09 2.08 1.99 1.93 1.77 1.60 1.62 1.82 1.96 1.93 2.29 2.49 2.35 2.29 2.33 2.15 2.27 2.43 2.72 2.63 2.62 2.43 2.41 2.25
0.00 0.00 0.00 0.01 0.01 0.04 0.08 0.17 0.37 0.68 0.89 0.95 0.84 0.88 1.14 1.42 1.67 2.12 2.52 2.61 2.58 2.77 2.91 2.71 2.63 2.58 2.39 2.38 2.03 1.75 1.66 1.56 1.49 1.71 1.89 2.12 2.44 2.53 2.57 2.30 2.19 2.04 2.20 2.44 2.47 2.26 2.37 2.51 2.48
0.00 0.00 0.01 0.02 0.02 0.05 0.15 0.23 0.37 0.60 0.69 0.70 0.77 1.01 1.21 1.61 1.91 2.43 2.91 2.98 3.07 3.32 3.48 3.38 3.34 3.13 2.82 2.54 2.31 2.18 1.91 1.84 1.57 1.63 1.64 1.98 2.35 2.39 2.25 2.27 2.29 2.14 2.24 2.25 2.25 2.31 2.51 2.63 2.69
0.00 0.02 0.07 0.08 0.06 0.08 0.16 0.37 0.46 0.65 0.74 0.69 0.87 1.04 1.42 1.87 2.12 2.44 2.70 3.09 3.50 3.87 3.92 3.85 3.86 3.72 3.64 3.29 2.86 2.47 2.30 2.03 1.94 1.87 1.70 1.93 2.21 2.35 2.33 2.27 2.13 2.12 2.17 2.26 2.30 2.36 2.50 2.39 2.41
0.02 0.06 0.19 0.17 0.11 0.11 0.16 0.53 0.77 0.74 0.72 0.76 0.93 1.26 1.54 1.83 2.23 2.45 2.78 3.13 3.53 4.03 4.40 4.45 3.95 3.89 3.90 3.77 3.45 3.02 2.91 2.74 2.51 2.15 1.93 1.87 2.04 2.10 2.19 2.04 2.01 2.07 1.91 1.94 2.08 2.04 2.12 2.18 2.28
0.06 0.11 0.18 0.26 0.16 0.13 0.25 0.74 1.08 0.82 0.66 0.81 1.07 1.38 1.74 1.95 2.37 2.50 2.69 2.97 3.42 4.29 5.18 5.16 4.59 4.18 3.89 3.81 3.80 3.66 3.46 3.07 2.64 2.34 2.15 1.97 1.82 1.65 1.73 1.68 1.76 1.73 1.68 1.71 1.56 1.85 1.97 2.08 2.14
0.06 0.11 0.23 0.36 0.22 0.20 0.31 0.69 0.75 0.67 0.86 0.88 0.92 1.15 1.48 1.59 1.88 2.15 2.45 2.99 3.79 4.97 5.74 5.64 4.99 4.52 4.18 3.97 3.77 3.69 3.36 3.04 2.61 2.39 2.21 1.92 1.82 1.54 1.51 1.47 1.53 1.45 1.52 1.66 1.71 1.86 1.84 1.77 1.82
0.05 0.10 0.22 0.27 0.20 0.29 0.37 0.59 0.69 0.80 1.00 1.01 0.87 0.92 1.23 1.42 1.69 2.08 2.68 3.56 4.64 5.54 5.81 5.30 4.78 4.43 4.01 3.59 3.01 2.64 2.57 2.44 2.15 1.89 1.62 1.50 1.40 1.45 1.50 1.34 1.45 1.35 1.38 1.40 1.43 1.51 1.52 1.47 1.55
0.06 0.09 0.20 0.26 0.18 0.21 0.36 0.69 0.99 0.97 0.90 0.87 0.94 0.94 1.05 1.42 1.87 2.57 3.59 4.19 4.44 4.56 4.33 3.98 3.72 3.50 3.04 2.66 2.42 2.17 2.12 1.93 1.73 1.64 1.59 1.33 1.22 1.26 1.21 1.31 1.30 1.25 1.37 1.40 1.39 1.41 1.39 1.30 1.35
0.10 0.11 0.18 0.25 0.16 0.17 0.37 0.85 1.13 1.13 0.91 0.78 0.84 0.84 1.03 1.46 2.05 2.85 3.41 3.53 3.26 2.95 2.85 2.80 2.86 2.61 2.48 2.42 2.31 2.19 2.15 1.92 1.66 1.55 1.50 1.27 1.09 1.10 1.13 1.15 1.16 1.24 1.22 1.36 1.39 1.28 1.30 1.34 1.29
0.09 0.07 0.06 0.09 0.15 0.33 0.53 1.08 1.26 1.05 1.02 0.84 0.84 0.86 0.92 1.21 1.57 1.99 2.23 2.12 2.24 2.38 2.38 2.49 2.59 2.34 2.31 2.25 1.96 1.86 1.74 1.61 1.45 1.40 1.40 1.45 1.22 1.07 1.02 1.02 1.02 1.11 1.11 1.31 1.14 1.18 1.31 1.36 1.24
0.04 0.03 0.04 0.11 0.22 0.42 0.61 0.87 1.03 0.87 1.06 0.84 0.70 0.70 0.69 0.86 0.95 1.07 1.20 1.35 1.56 1.67 1.84 2.13 2.37 2.31 2.15 1.99 1.90 1.92 1.78 1.71 1.68 1.69 1.63 1.58 1.45 1.22 1.07 1.08 1.07 1.10 1.05 1.10 1.09 1.31 1.28 1.23 1.18
0.03 0.05 0.12 0.23 0.40 0.89 0.85 0.83 1.06 1.00 1.07 0.82 0.62 0.53 0.58 0.72 0.82 0.86 0.91 1.04 1.21 1.34 1.51 1.76 2.06 2.19 2.11 1.95 1.85 1.84 1.86 1.80 1.70 1.68 1.63 1.46 1.37 1.30 1.16 1.12 1.12 1.08 1.04 1.03 1.02 1.19 1.22 1.26 1.28
0.05 0.07 0.24 0.58 0.98 1.15 0.73 0.79 1.05 0.82 0.74 0.59 0.38 0.34 0.48 0.69 0.84 0.91 0.86 0.83 0.89 1.04 1.20 1.29 1.45 1.71 1.83 1.80 1.75 1.73 1.83 1.73 1.55 1.45 1.36 1.30 1.14 1.06 1.07 1.06 1.07 0.98 1.01 1.10 1.19 1.20 1.19 1.23 1.25
0.05 0.04 0.11 0.22 0.34 0.53 0.71 1.08 1.19 0.85 0.57 0.34 0.24 0.30 0.48 0.64 0.69 0.73 0.73 0.68 0.66 0.74 0.91 1.04 1.22 1.39 1.59 1.60 1.57 1.55 1.60 1.55 1.44 1.42 1.21 1.13 1.08 1.02 1.05 1.08 1.03 1.00 1.04 1.04 1.23 1.13 1.09 1.13 1.12
0.05 0.03 0.04 0.07 0.12 0.33 0.70 1.00 0.94 0.75 0.55 0.38 0.29 0.32 0.42 0.46 0.46 0.55 0.62 0.68 0.67 0.65 0.76 0.88 1.09 1.27 1.44 1.56 1.59 1.52 1.51 1.51 1.49 1.43 1.26 1.10 1.18 1.11 1.17 1.16 1.12 1.11 1.16 1.23 1.30 1.19 1.18 1.22 1.11
0.05 0.04 0.04 0.05 0.11 0.24 0.53 0.93 1.09 0.92 0.69 0.49 0.40 0.38 0.44 0.43 0.37 0.48 0.61 0.64 0.57 0.49 0.57 0.72 0.89 1.11 1.26 1.43 1.46 1.36 1.52 1.50 1.50 1.44 1.33 1.18 1.17 1.15 1.23 1.23 1.18 1.21 1.22 1.28 1.34 1.24 1.26 1.25 1.18
0.07 0.06 0.06 0.05 0.08 0.14 0.36 0.60 0.56 0.53 0.45 0.41 0.46 0.44 0.34 0.35 0.33 0.42 0.50 0.54 0.49 0.42 0.46 0.54 0.71 0.90 1.00 1.11 1.22 1.22 1.29 1.28 1.30 1.35 1.34 1.30 1.27 1.24 1.23 1.23 1.21 1.18 1.21 1.26 1.32 1.26 1.25 1.22 1.23
0.09 0.09 0.09 0.08 0.08 0.09 0.18 0.36 0.31 0.34 0.36 0.36 0.47 0.54 0.46 0.41 0.45 0.41 0.38 0.45 0.55 0.50 0.41 0.48 0.63 0.75 0.82 0.90 0.93 0.99 1.07 1.11 1.11 1.12 1.21 1.29 1.25 1.18 1.23 1.25 1.19 1.09 1.14 1.27 1.30 1.24 1.26 1.28 1.23